| time (UTC) | temp F | wind direction | speed MPH | gust MPH | rain 1hr in | rain 24hr in | rain mn in | humidity % | barometer mb |
| 20260507202406 | 63 | 213 | 5.0 | 7.0 | 0.00 | 0.00 | 0.00 | 36 | 983.2 |
| 20260507201905 | 64 | 112 | 6.0 | 9.0 | 0.00 | 0.00 | 0.00 | 38 | 983.2 |
| 20260507201405 | 62 | 158 | 6.0 | 9.0 | 0.00 | 0.00 | 0.00 | 38 | 983.4 |
| 20260507200905 | 62 | 199 | 7.0 | 10.0 | 0.00 | 0.00 | 0.00 | 39 | 983.4 |
| 20260507195905 | 63 | 180 | 6.0 | 8.0 | 0.00 | 0.00 | 0.00 | 37 | 983.5 |
| 20260507195405 | 65 | 232 | 6.0 | 12.0 | 0.00 | 0.00 | 0.00 | 36 | 983.5 |
| 20260507194905 | 64 | 186 | 5.0 | 8.0 | 0.00 | 0.00 | 0.00 | 38 | 983.7 |
| 20260507194406 | 62 | 164 | 6.0 | 10.0 | 0.00 | 0.00 | 0.00 | 39 | 983.7 |
| 20260507193905 | 61 | 247 | 6.0 | 9.0 | 0.00 | 0.00 | 0.00 | 40 | 983.7 |
| 20260507193406 | 62 | 167 | 3.0 | 7.0 | 0.00 | 0.00 | 0.00 | 41 | 983.7 |
| 20260507192905 | 64 | 233 | 3.0 | 7.0 | 0.00 | 0.00 | 0.00 | 38 | 983.7 |
| 20260507192405 | 65 | 222 | 5.0 | 8.0 | 0.00 | 0.00 | 0.00 | 39 | 983.8 |
| 20260507191404 | 64 | 158 | 7.0 | 12.0 | 0.00 | 0.00 | 0.00 | 38 | 983.9 |
| 20260507190906 | 63 | 230 | 3.0 | 7.0 | 0.00 | 0.00 | 0.00 | 41 | 983.9 |
| 20260507190405 | 62 | 144 | 5.0 | 9.0 | 0.00 | 0.00 | 0.00 | 40 | 984.0 |
| 20260507185405 | 63 | 239 | 5.0 | 9.0 | 0.00 | 0.00 | 0.00 | 39 | 984.0 |
| 20260507184904 | 63 | 310 | 5.0 | 6.0 | 0.00 | 0.00 | 0.00 | 40 | 984.1 |
| 20260507184405 | 65 | 270 | 5.0 | 7.0 | 0.00 | 0.00 | 0.00 | 39 | 984.1 |
| 20260507183905 | 65 | 211 | 6.0 | 10.0 | 0.00 | 0.00 | 0.00 | 39 | 984.0 |
| 20260507183405 | 64 | 244 | 3.0 | 8.0 | 0.00 | 0.00 | 0.00 | 40 | 984.0 |
| 20260507182905 | 65 | 202 | 6.0 | 10.0 | 0.00 | 0.00 | 0.00 | 40 | 984.0 |
| 20260507182405 | 64 | 252 | 5.0 | 7.0 | 0.00 | 0.00 | 0.00 | 41 | 984.2 |
| 20260507181905 | 65 | 245 | 6.0 | 9.0 | 0.00 | 0.00 | 0.00 | 40 | 984.2 |
| 20260507181405 | 63 | 190 | 4.0 | 7.0 | 0.00 | 0.00 | 0.00 | 42 | 984.2 |
| 20260507180904 | 62 | 217 | 6.0 | 7.0 | 0.00 | 0.00 | 0.00 | 42 | 984.2 |
| 20260507180404 | 62 | 118 | 5.0 | 8.0 | 0.00 | 0.00 | 0.00 | 40 | 984.3 |
| 20260507175405 | 63 | 270 | 5.0 | 6.0 | 0.00 | 0.00 | 0.00 | 40 | 984.4 |
| 20260507174904 | 62 | 164 | 5.0 | 8.0 | 0.00 | 0.00 | 0.00 | 41 | 984.6 |
| 20260507173905 | 61 | 216 | 6.0 | 10.0 | 0.00 | 0.00 | 0.00 | 41 | 984.7 |
| 20260507173405 | 60 | 195 | 5.0 | 7.0 | 0.00 | 0.00 | 0.00 | 42 | 984.7 |
| 20260507172905 | 62 | 225 | 5.0 | 14.0 | 0.00 | 0.00 | 0.00 | 39 | 984.7 |
| 20260507172404 | 61 | 171 | 9.0 | 14.0 | 0.00 | 0.00 | 0.00 | 40 | 984.9 |
| 20260507171905 | 60 | 130 | 3.0 | 6.0 | 0.00 | 0.00 | 0.00 | 40 | 984.9 |
| 20260507171405 | 60 | 258 | 5.0 | 8.0 | 0.00 | 0.00 | 0.00 | 42 | 984.9 |
| 20260507170905 | 60 | 188 | 4.0 | 7.0 | 0.00 | 0.00 | 0.00 | 42 | 984.9 |
| 20260507165904 | 61 | 202 | 6.0 | 8.0 | 0.00 | 0.00 | 0.00 | 40 | 985.1 |
| 20260507165404 | 62 | 79 | 5.0 | 8.0 | 0.00 | 0.00 | 0.00 | 39 | 985.1 |
| 20260507164904 | 60 | 210 | 5.0 | 7.0 | 0.00 | 0.00 | 0.00 | 43 | 985.2 |
| 20260507164404 | 59 | 191 | 3.0 | 8.0 | 0.00 | 0.00 | 0.00 | 42 | 985.2 |
| 20260507163904 | 61 | 159 | 4.0 | 6.0 | 0.00 | 0.00 | 0.00 | 41 | 985.3 |
| 20260507163405 | 59 | 137 | 5.0 | 9.0 | 0.00 | 0.00 | 0.00 | 40 | 985.3 |
| 20260507162904 | 59 | 258 | 6.0 | 7.0 | 0.00 | 0.00 | 0.00 | 42 | 985.3 |
| 20260507162404 | 59 | 165 | 5.0 | 6.0 | 0.00 | 0.00 | 0.00 | 43 | 985.4 |
| 20260507161905 | 59 | 101 | 4.0 | 6.0 | 0.00 | 0.00 | 0.00 | 44 | 985.4 |
| 20260507161404 | 58 | 158 | 2.0 | 5.0 | 0.00 | 0.00 | 0.00 | 43 | 985.5 |
| 20260507160905 | 60 | 301 | 5.0 | 7.0 | 0.00 | 0.00 | 0.00 | 41 | 985.5 |
| 20260507155904 | 57 | 149 | 3.0 | 6.0 | 0.00 | 0.00 | 0.00 | 48 | 985.5 |
| 20260507155404 | 57 | 193 | 5.0 | 6.0 | 0.00 | 0.00 | 0.00 | 46 | 985.5 |
| 20260507154405 | 59 | 230 | 4.0 | 7.0 | 0.00 | 0.00 | 0.00 | 45 | 985.6 |
| 20260507153905 | 60 | 215 | 5.0 | 7.0 | 0.00 | 0.00 | 0.00 | 43 | 985.8 |
| 20260507152405 | 59 | 90 | 5.0 | 9.0 | 0.00 | 0.00 | 0.00 | 42 | 985.9 |
| 20260507151904 | 57 | 250 | 4.0 | 7.0 | 0.00 | 0.00 | 0.00 | 45 | 985.9 |
| 20260507151404 | 59 | 143 | 5.0 | 7.0 | 0.00 | 0.00 | 0.00 | 46 | 986.1 |
| 20260507150905 | 58 | 199 | 1.0 | 2.0 | 0.00 | 0.00 | 0.00 | 49 | 986.1 |
| 20260507150404 | 56 | 202 | 3.0 | 6.0 | 0.00 | 0.00 | 0.00 | 46 | 986.2 |
| 20260507145904 | 58 | 137 | 3.0 | 6.0 | 0.00 | 0.01 | 0.00 | 45 | 986.2 |
| 20260507145405 | 59 | 315 | 3.0 | 5.0 | 0.00 | 0.01 | 0.00 | 45 | 986.2 |
| 20260507144904 | 58 | 200 | 5.0 | 7.0 | 0.00 | 0.02 | 0.00 | 44 | 986.3 |
| 20260507144404 | 58 | 270 | 4.0 | 6.0 | 0.00 | 0.02 | 0.00 | 48 | 986.3 |
| 20260507143904 | 59 | 252 | 4.0 | 6.0 | 0.00 | 0.02 | 0.00 | 47 | 986.5 |
| 20260507143404 | 59 | 135 | 5.0 | 5.0 | 0.00 | 0.03 | 0.00 | 50 | 986.5 |
| 20260507142405 | 58 | 176 | 4.0 | 6.0 | 0.00 | 0.03 | 0.00 | 50 | 986.8 |
| 20260507141903 | 57 | 215 | 3.0 | 6.0 | 0.00 | 0.03 | 0.00 | 51 | 986.8 |
| 20260507141404 | 58 | 237 | 3.0 | 6.0 | 0.00 | 0.04 | 0.00 | 50 | 986.9 |
| 20260507140404 | 57 | 159 | 5.0 | 7.0 | 0.00 | 0.04 | 0.00 | 51 | 987.0 |
| 20260507135905 | 58 | 309 | 5.0 | 6.0 | 0.00 | 0.04 | 0.00 | 48 | 987.1 |
| 20260507135404 | 56 | 193 | 3.0 | 5.0 | 0.00 | 0.04 | 0.00 | 51 | 987.1 |
| 20260507134907 | 56 | 189 | 3.0 | 5.0 | 0.00 | 0.04 | 0.00 | 51 | 987.0 |
| 20260507134408 | 55 | 165 | 4.0 | 6.0 | 0.00 | 0.04 | 0.00 | 51 | 987.0 |
| 20260507133913 | 56 | 207 | 4.0 | 6.0 | 0.00 | 0.06 | 0.00 | 50 | 987.2 |
| 20260507132908 | 55 | 62 | 2.0 | 3.0 | 0.00 | 0.06 | 0.00 | 60 | 987.2 |
| 20260507132407 | 54 | 191 | 3.0 | 3.0 | 0.00 | 0.06 | 0.00 | 63 | 987.3 |
| 20260507131907 | 53 | 157 | 3.0 | 3.0 | 0.00 | 0.06 | 0.00 | 66 | 987.3 |
| 20260507131407 | 53 | 183 | 2.0 | 2.0 | 0.00 | 0.06 | 0.00 | 68 | 987.2 |
| 20260507130907 | 53 | 292 | 1.0 | 2.0 | 0.00 | 0.06 | 0.00 | 68 | 987.2 |
| 20260507130408 | 52 | 207 | 2.0 | 3.0 | 0.00 | 0.06 | 0.00 | 72 | 987.2 |
| 20260507125908 | 50 | 172 | 2.0 | 3.0 | 0.00 | 0.06 | 0.00 | 74 | 987.3 |
| 20260507125407 | 49 | 135 | 3.0 | 3.0 | 0.00 | 0.06 | 0.00 | 75 | 987.3 |
| 20260507124907 | 49 | 168 | 2.0 | 3.0 | 0.00 | 0.06 | 0.00 | 77 | 987.4 |
| 20260507124406 | 48 | 132 | 3.0 | 3.0 | 0.00 | 0.06 | 0.00 | 77 | 987.4 |
| 20260507123908 | 47 | 145 | 2.0 | 2.0 | 0.00 | 0.06 | 0.00 | 79 | 987.5 |
| 20260507123407 | 47 | 162 | 2.0 | 2.0 | 0.00 | 0.06 | 0.00 | 80 | 987.5 |
| 20260507122907 | 46 | 154 | 3.0 | 3.0 | 0.00 | 0.07 | 0.00 | 83 | 987.5 |
| 20260507122408 | 45 | 170 | 2.0 | 2.0 | 0.00 | 0.07 | 0.00 | 84 | 987.5 |
| 20260507121907 | 45 | 157 | 2.0 | 3.0 | 0.00 | 0.07 | 0.00 | 84 | 987.5 |
| 20260507121407 | 44 | 184 | 2.0 | 2.0 | 0.00 | 0.08 | 0.00 | 86 | 987.4 |
| 20260507120908 | 44 | 200 | 1.0 | 2.0 | 0.00 | 0.08 | 0.00 | 88 | 987.4 |
| 20260507120407 | 43 | 187 | 1.0 | 2.0 | 0.00 | 0.10 | 0.00 | 91 | 987.4 |
| 20260507115907 | 42 | 233 | 1.0 | 2.0 | 0.00 | 0.10 | 0.00 | 92 | 987.5 |
| 20260507115406 | 41 | 269 | 1.0 | 1.0 | 0.00 | 0.10 | 0.00 | 94 | 987.5 |
| 20260507114907 | 41 | 45 | 2.0 | 2.0 | 0.00 | 0.10 | 0.00 | 94 | 987.4 |
| 20260507114407 | 41 | 226 | 0.0 | 1.0 | 0.00 | 0.10 | 0.00 | 94 | 987.4 |
| 20260507113907 | 41 | 201 | 0.0 | 1.0 | 0.00 | 0.11 | 0.00 | 94 | 987.3 |
| 20260507112908 | 41 | 265 | 0.0 | 1.0 | 0.00 | 0.11 | 0.00 | 95 | 987.3 |
| 20260507112407 | 40 | 213 | 0.0 | 1.0 | 0.00 | 0.11 | 0.00 | 95 | 987.1 |
| 20260507111408 | 40 | 226 | 0.0 | 1.0 | 0.00 | 0.11 | 0.00 | 95 | 987.1 |
| 20260507110907 | 40 | 204 | 0.0 | 1.0 | 0.00 | 0.11 | 0.00 | 95 | 987.1 |
| 20260507110407 | 40 | 181 | 1.0 | 1.0 | 0.00 | 0.12 | 0.00 | 95 | 987.0 |
| 20260507105407 | 40 | 270 | 2.0 | 2.0 | 0.00 | 0.12 | 0.00 | 95 | 987.0 |
| 20260507104406 | 40 | 302 | 2.0 | 2.0 | 0.00 | 0.14 | 0.00 | 95 | 987.0 |
| 20260507103907 | 40 | 290 | 1.0 | 2.0 | 0.00 | 0.15 | 0.00 | 95 | 986.9 |
| 20260507103407 | 39 | 292 | 2.0 | 2.0 | 0.00 | 0.16 | 0.00 | 95 | 986.9 |
| 20260507101907 | 39 | 270 | 0.0 | 0.0 | 0.00 | 0.20 | 0.00 | 94 | 986.7 |
| 20260507101406 | 39 | 229 | 1.0 | 1.0 | 0.00 | 0.23 | 0.00 | 94 | 986.7 |
| 20260507100906 | 38 | 270 | 1.0 | 1.0 | 0.00 | 0.25 | 0.00 | 93 | 986.7 |
| 20260507100406 | 39 | 259 | 0.0 | 0.0 | 0.00 | 0.28 | 0.00 | 93 | 986.7 |
| 20260507095907 | 38 | 250 | 0.0 | 0.0 | 0.00 | 0.31 | 0.00 | 93 | 986.6 |
| 20260507094906 | 38 | 270 | 0.0 | 0.0 | 0.00 | 0.34 | 0.00 | 92 | 986.6 |
| 20260507094406 | 38 | 266 | 0.0 | 0.0 | 0.00 | 0.34 | 0.00 | 92 | 986.6 |
| 20260507093908 | 38 | 270 | 0.0 | 0.0 | 0.00 | 0.34 | 0.00 | 90 | 986.6 |
| 20260507093406 | 39 | 225 | 0.0 | 0.0 | 0.00 | 0.35 | 0.00 | 91 | 986.6 |
| 20260507092907 | 39 | 202 | 0.0 | 0.0 | 0.00 | 0.36 | 0.00 | 91 | 986.6 |
| 20260507091914 | 39 | 260 | 0.0 | 0.0 | 0.00 | 0.39 | 0.00 | 90 | 986.7 |
| 20260507091417 | 39 | 273 | 0.0 | 0.0 | 0.00 | 0.40 | 0.00 | 90 | 986.8 |
| 20260507090917 | 39 | 209 | 0.0 | 0.0 | 0.00 | 0.42 | 0.00 | 91 | 986.8 |
| 20260507090416 | 39 | 236 | 0.0 | 0.0 | 0.00 | 0.42 | 0.00 | 91 | 986.8 |
| 20260507085906 | 39 | 231 | 0.0 | 0.0 | 0.00 | 0.42 | 0.00 | 90 | 986.8 |
| 20260507085414 | 39 | 270 | 0.0 | 0.0 | 0.00 | 0.42 | 0.00 | 90 | 986.8 |
| 20260507084907 | 39 | 270 | 0.0 | 0.0 | 0.00 | 0.42 | 0.00 | 90 | 986.8 |
| 20260507084407 | 40 | 249 | 1.0 | 1.0 | 0.00 | 0.42 | 0.00 | 90 | 986.8 |
| 20260507083906 | 40 | 225 | 0.0 | 0.0 | 0.00 | 0.42 | 0.00 | 90 | 986.8 |
| 20260507083406 | 40 | 248 | 0.0 | 1.0 | 0.00 | 0.42 | 0.00 | 90 | 986.8 |
| 20260507082906 | 40 | 270 | 1.0 | 1.0 | 0.00 | 0.42 | 0.00 | 90 | 986.8 |
| 20260507082407 | 40 | 265 | 1.0 | 1.0 | 0.00 | 0.42 | 0.00 | 90 | 986.7 |
| 20260507081906 | 40 | 282 | 1.0 | 1.0 | 0.00 | 0.42 | 0.00 | 89 | 986.7 |
| 20260507081406 | 41 | 270 | 0.0 | 0.0 | 0.00 | 0.42 | 0.00 | 88 | 986.6 |
| 20260507080906 | 41 | 225 | 0.0 | 1.0 | 0.00 | 0.42 | 0.00 | 89 | 986.6 |
| 20260507080407 | 41 | 273 | 1.0 | 1.0 | 0.00 | 0.42 | 0.00 | 89 | 986.6 |
| 20260507075907 | 41 | 270 | 0.0 | 0.0 | 0.00 | 0.42 | 0.00 | 87 | 986.6 |
| 20260507075407 | 42 | 283 | 0.0 | 1.0 | 0.00 | 0.42 | 0.00 | 86 | 986.6 |
| 20260507074406 | 42 | 255 | 1.0 | 1.0 | 0.00 | 0.42 | 0.00 | 85 | 986.7 |
| 20260507073907 | 42 | 270 | 1.0 | 1.0 | 0.00 | 0.42 | 0.00 | 85 | 986.7 |
| 20260507072414 | 44 | 240 | 0.0 | 0.0 | 0.00 | 0.42 | 0.00 | 82 | 986.6 |
| 20260507071906 | 44 | 225 | 1.0 | 1.0 | 0.00 | 0.42 | 0.00 | 83 | 986.6 |
| 20260507070906 | 44 | 284 | 2.0 | 2.0 | 0.00 | 0.42 | 0.00 | 83 | 986.7 |
| 20260507070407 | 45 | 279 | 2.0 | 2.0 | 0.00 | 0.42 | 0.00 | 82 | 986.7 |
| 20260507065907 | 45 | 273 | 1.0 | 1.0 | 0.00 | 0.42 | 0.00 | 82 | 986.7 |
| 20260507064907 | 45 | 290 | 2.0 | 2.0 | 0.00 | 0.42 | 0.00 | 78 | 986.8 |
| 20260507064416 | 46 | 309 | 2.0 | 2.0 | 0.00 | 0.42 | 0.00 | 79 | 986.8 |
| 20260507063405 | 46 | 274 | 2.0 | 2.0 | 0.00 | 0.42 | 0.00 | 80 | 986.6 |
| 20260507062916 | 46 | 292 | 2.0 | 2.0 | 0.00 | 0.42 | 0.00 | 79 | 986.6 |
| 20260507062406 | 47 | 264 | 1.0 | 1.0 | 0.00 | 0.42 | 0.00 | 79 | 986.6 |
| 20260507061906 | 47 | 286 | 2.0 | 2.0 | 0.00 | 0.43 | 0.00 | 78 | 986.6 |
| 20260507061406 | 47 | 303 | 2.0 | 2.0 | 0.00 | 0.44 | 0.00 | 78 | 987.0 |
| 20260507060906 | 47 | 302 | 2.0 | 2.0 | 0.00 | 0.44 | 0.00 | 77 | 987.0 |
| 20260507060416 | 47 | 292 | 2.0 | 2.0 | 0.00 | 0.44 | 0.00 | 78 | 987.0 |
| 20260507055914 | 47 | 292 | 1.0 | 1.0 | 0.00 | 0.44 | 0.00 | 79 | 987.0 |
| 20260507055409 | 47 | 270 | 1.0 | 1.0 | 0.00 | 0.44 | 0.00 | 78 | 987.0 |
| 20260507054906 | 48 | 238 | 1.0 | 1.0 | 0.00 | 0.44 | 0.00 | 78 | 987.3 |
| 20260507053907 | 48 | 292 | 2.0 | 2.0 | 0.00 | 0.44 | 0.00 | 79 | 987.3 |
| 20260507053407 | 48 | 274 | 1.0 | 2.0 | 0.00 | 0.45 | 0.00 | 79 | 987.3 |
| 20260507052907 | 48 | 270 | 1.0 | 2.0 | 0.00 | 0.45 | 0.00 | 78 | 987.3 |
| 20260507052406 | 48 | 258 | 1.0 | 1.0 | 0.00 | 0.45 | 0.00 | 78 | 987.3 |
| 20260507051917 | 48 | 270 | 1.0 | 1.0 | 0.00 | 0.46 | 0.00 | 76 | 987.3 |
| 20260507051407 | 48 | 270 | 2.0 | 2.0 | 0.00 | 0.46 | 0.00 | 78 | 987.2 |
| 20260507050905 | 48 | 270 | 1.0 | 2.0 | 0.00 | 0.46 | 0.00 | 78 | 987.2 |
| 20260507050406 | 48 | 270 | 1.0 | 1.0 | 0.00 | 0.46 | 0.00 | 79 | 987.3 |
| 20260507045906 | 48 | 270 | 1.0 | 1.0 | 0.00 | 0.46 | 0.00 | 78 | 987.4 |
| 20260507044908 | 48 | 275 | 1.0 | 2.0 | 0.00 | 0.46 | 0.00 | 77 | 987.3 |
| 20260507044412 | 48 | 292 | 2.0 | 2.0 | 0.00 | 0.46 | 0.00 | 77 | 987.3 |
| 20260507043917 | 48 | 291 | 1.0 | 1.0 | 0.00 | 0.46 | 0.00 | 79 | 987.2 |
| 20260507043406 | 48 | 270 | 1.0 | 1.0 | 0.00 | 0.46 | 0.00 | 78 | 987.2 |
| 20260507042906 | 48 | 292 | 2.0 | 2.0 | 0.00 | 0.46 | 0.00 | 77 | 987.2 |
| 20260507042413 | 48 | 292 | 1.0 | 2.0 | 0.00 | 0.46 | 0.00 | 77 | 987.4 |
| 20260507041906 | 48 | 311 | 1.0 | 2.0 | 0.00 | 0.46 | 0.00 | 76 | 987.4 |
| 20260507041406 | 49 | 295 | 1.0 | 2.0 | 0.00 | 0.46 | 0.00 | 77 | 987.2 |
| 20260507040906 | 49 | 270 | 1.0 | 1.0 | 0.00 | 0.46 | 0.00 | 77 | 987.2 |
| 20260507040407 | 49 | 270 | 1.0 | 1.0 | 0.00 | 0.46 | 0.00 | 78 | 987.2 |
| 20260507035905 | 49 | 292 | 2.0 | 2.0 | 0.00 | 0.46 | 0.46 | 77 | 987.1 |
| 20260507035406 | 49 | 270 | 1.0 | 1.0 | 0.00 | 0.46 | 0.46 | 77 | 987.1 |
| 20260507034406 | 49 | 234 | 0.0 | 1.0 | 0.00 | 0.46 | 0.46 | 77 | 987.2 |
| 20260507033916 | 49 | 270 | 1.0 | 1.0 | 0.00 | 0.46 | 0.46 | 77 | 987.1 |
| 20260507033406 | 49 | 262 | 1.0 | 2.0 | 0.00 | 0.46 | 0.46 | 76 | 987.1 |
| 20260507032905 | 49 | 292 | 2.0 | 2.0 | 0.00 | 0.46 | 0.46 | 75 | 987.0 |
| 20260507032406 | 49 | 292 | 1.0 | 2.0 | 0.00 | 0.46 | 0.46 | 75 | 986.9 |
| 20260507031906 | 49 | 312 | 2.0 | 2.0 | 0.00 | 0.46 | 0.46 | 76 | 986.9 |
| 20260507031405 | 49 | 265 | 1.0 | 2.0 | 0.00 | 0.46 | 0.46 | 77 | 986.6 |
| 20260507030906 | 49 | 283 | 1.0 | 1.0 | 0.00 | 0.46 | 0.46 | 76 | 986.6 |
| 20260507025916 | 49 | 292 | 2.0 | 2.0 | 0.00 | 0.46 | 0.46 | 76 | 986.6 |
| 20260507024906 | 49 | 270 | 1.0 | 2.0 | 0.00 | 0.46 | 0.46 | 74 | 986.8 |
| 20260507024406 | 49 | 283 | 2.0 | 2.0 | 0.00 | 0.46 | 0.46 | 73 | 986.8 |
| 20260507023917 | 50 | 270 | 2.0 | 2.0 | 0.00 | 0.46 | 0.46 | 74 | 986.5 |
| 20260507023406 | 50 | 282 | 2.0 | 2.0 | 0.00 | 0.46 | 0.46 | 76 | 986.5 |
| 20260507022908 | 50 | 292 | 2.0 | 2.0 | 0.00 | 0.46 | 0.46 | 75 | 986.5 |
| 20260507022405 | 50 | 292 | 2.0 | 2.0 | 0.00 | 0.46 | 0.46 | 73 | 986.6 |
| 20260507021915 | 50 | 246 | 2.0 | 2.0 | 0.00 | 0.46 | 0.46 | 75 | 986.6 |
| 20260507021405 | 50 | 281 | 1.0 | 2.0 | 0.00 | 0.46 | 0.46 | 75 | 986.4 |
| 20260507020916 | 50 | 295 | 2.0 | 2.0 | 0.00 | 0.46 | 0.46 | 73 | 986.4 |
| 20260507020406 | 50 | 292 | 2.0 | 2.0 | 0.00 | 0.46 | 0.46 | 75 | 986.2 |
| 20260507015405 | 50 | 292 | 2.0 | 2.0 | 0.00 | 0.46 | 0.46 | 76 | 986.2 |
| 20260507014905 | 50 | 288 | 1.0 | 2.0 | 0.00 | 0.46 | 0.46 | 76 | 986.0 |
| 20260507014416 | 50 | 315 | 2.0 | 2.0 | 0.00 | 0.46 | 0.46 | 75 | 986.0 |
| 20260507013916 | 50 | 292 | 2.0 | 2.0 | 0.00 | 0.46 | 0.46 | 76 | 985.8 |
| 20260507013405 | 51 | 292 | 2.0 | 2.0 | 0.00 | 0.46 | 0.46 | 75 | 985.8 |
| 20260507012909 | 51 | 286 | 2.0 | 2.0 | 0.00 | 0.46 | 0.46 | 77 | 985.8 |
| 20260507012417 | 51 | 270 | 2.0 | 2.0 | 0.00 | 0.46 | 0.46 | 76 | 985.6 |
| 20260507011909 | 51 | 292 | 2.0 | 2.0 | 0.00 | 0.46 | 0.46 | 79 | 985.6 |
| 20260507011406 | 51 | 280 | 1.0 | 3.0 | 0.00 | 0.46 | 0.46 | 77 | 985.9 |
| 20260507010906 | 51 | 250 | 2.0 | 2.0 | 0.00 | 0.46 | 0.46 | 80 | 985.9 |
| 20260507010406 | 52 | 262 | 1.0 | 1.0 | 0.00 | 0.46 | 0.46 | 79 | 985.9 |
| 20260507005905 | 52 | 292 | 2.0 | 2.0 | 0.00 | 0.46 | 0.46 | 81 | 985.9 |
| 20260507003916 | 52 | 276 | 1.0 | 2.0 | 0.00 | 0.46 | 0.46 | 83 | 985.9 |
| 20260507002406 | 52 | 305 | 2.0 | 2.0 | 0.00 | 0.46 | 0.46 | 80 | 986.1 |
| 20260507001916 | 52 | 272 | 2.0 | 2.0 | 0.00 | 0.46 | 0.46 | 81 | 986.1 |
| 20260507001416 | 53 | 257 | 1.0 | 2.0 | 0.00 | 0.46 | 0.46 | 80 | 985.9 |
| 20260507000915 | 53 | 282 | 1.0 | 1.0 | 0.00 | 0.46 | 0.46 | 80 | 985.9 |
| 20260507000415 | 53 | 270 | 1.0 | 1.0 | 0.00 | 0.46 | 0.46 | 79 | 985.8 |
| 20260506235905 | 53 | 280 | 2.0 | 2.0 | 0.00 | 0.46 | 0.46 | 77 | 985.8 |
| 20260506234905 | 53 | 301 | 2.0 | 2.0 | 0.00 | 0.46 | 0.46 | 78 | 985.6 |
| 20260506234406 | 53 | 281 | 2.0 | 2.0 | 0.00 | 0.46 | 0.46 | 78 | 985.6 |
| 20260506233908 | 53 | 315 | 2.0 | 2.0 | 0.00 | 0.46 | 0.46 | 76 | 985.7 |
| 20260506233407 | 54 | 312 | 2.0 | 2.0 | 0.00 | 0.46 | 0.46 | 77 | 985.7 |
| 20260506232906 | 54 | 292 | 2.0 | 2.0 | 0.00 | 0.46 | 0.46 | 75 | 985.7 |
| 20260506232409 | 54 | 315 | 2.0 | 2.0 | 0.00 | 0.46 | 0.46 | 78 | 985.5 |
| 20260506231905 | 55 | 270 | 1.0 | 2.0 | 0.00 | 0.46 | 0.46 | 75 | 985.5 |
| 20260506231415 | 55 | 292 | 2.0 | 2.0 | 0.00 | 0.46 | 0.46 | 77 | 985.3 |
| 20260506230906 | 55 | 208 | 1.0 | 2.0 | 0.00 | 0.46 | 0.46 | 74 | 985.3 |
| 20260506230415 | 55 | 270 | 2.0 | 2.0 | 0.00 | 0.46 | 0.46 | 74 | 985.2 |
| 20260506225915 | 56 | 279 | 1.0 | 2.0 | 0.00 | 0.46 | 0.46 | 75 | 985.1 |
| 20260506225413 | 56 | 292 | 1.0 | 2.0 | 0.00 | 0.46 | 0.46 | 74 | 985.1 |
| 20260506224905 | 56 | 285 | 2.0 | 2.0 | 0.00 | 0.46 | 0.46 | 74 | 985.2 |
| 20260506224415 | 56 | 238 | 1.0 | 2.0 | 0.00 | 0.46 | 0.46 | 71 | 985.2 |
| 20260506223915 | 57 | 281 | 2.0 | 2.0 | 0.00 | 0.46 | 0.46 | 71 | 985.0 |
| 20260506222905 | 56 | 202 | 3.0 | 5.0 | 0.00 | 0.46 | 0.46 | 64 | 985.0 |
| 20260506222412 | 56 | 127 | 3.0 | 5.0 | 0.00 | 0.46 | 0.46 | 65 | 985.0 |
| 20260506221908 | 56 | 159 | 2.0 | 5.0 | 0.00 | 0.46 | 0.46 | 68 | 985.0 |
| 20260506221413 | 56 | 180 | 2.0 | 3.0 | 0.00 | 0.46 | 0.46 | 69 | 985.0 |
| 20260506220915 | 56 | 178 | 2.0 | 2.0 | 0.00 | 0.46 | 0.46 | 67 | 985.0 |
| 20260506220405 | 56 | 180 | 2.0 | 3.0 | 0.00 | 0.46 | 0.46 | 68 | 984.8 |
| 20260506215418 | 56 | 186 | 1.0 | 2.0 | 0.00 | 0.46 | 0.46 | 74 | 984.8 |
| 20260506214916 | 56 | 202 | 1.0 | 2.0 | 0.00 | 0.46 | 0.46 | 72 | 984.8 |
| 20260506214405 | 56 | 202 | 1.0 | 3.0 | 0.00 | 0.46 | 0.46 | 72 | 984.8 |
| 20260506213906 | 56 | 168 | 1.0 | 3.0 | 0.00 | 0.46 | 0.46 | 74 | 984.5 |
| 20260506213406 | 56 | 195 | 1.0 | 2.0 | 0.00 | 0.46 | 0.46 | 70 | 984.5 |
| 20260506212905 | 56 | 144 | 0.0 | 2.0 | 0.00 | 0.46 | 0.46 | 72 | 984.5 |
| 20260506212406 | 56 | 191 | 1.0 | 2.0 | 0.00 | 0.46 | 0.46 | 69 | 984.5 |
| 20260506211404 | 56 | 180 | 1.0 | 1.0 | 0.00 | 0.46 | 0.46 | 71 | 984.2 |
| 20260506210910 | 56 | 90 | 2.0 | 2.0 | 0.00 | 0.46 | 0.46 | 70 | 984.2 |
| 20260506210412 | 56 | 146 | 3.0 | 3.0 | 0.00 | 0.46 | 0.46 | 70 | 984.1 |
| 20260506205912 | 56 | 210 | 1.0 | 5.0 | 0.00 | 0.46 | 0.46 | 71 | 984.1 |
| 20260506204911 | 56 | 135 | 3.0 | 3.0 | 0.00 | 0.46 | 0.46 | 70 | 984.2 |
| 20260506204424 | 55 | 157 | 1.0 | 3.0 | 0.00 | 0.46 | 0.46 | 69 | 984.2 |
| 20260506203913 | 55 | 220 | 2.0 | 3.0 | 0.00 | 0.46 | 0.46 | 69 | 984.1 |
| 20260506202913 | 56 | 162 | 2.0 | 6.0 | 0.00 | 0.46 | 0.46 | 72 | 984.1 |